Monarch Pass, CO

11:05 AM MDT on May 28, 2017 (GMT -0600)
Monarch Pass

Weather History for KMYP - December, 2011

Change the Weather History Date:

Saturday, December 17, 2011

  Actual Average (KALS) Record (KALS)
Temperature  
Mean Temperature 25 °F -  
Max Temperature 33 °F 34 °F 56 °F (1946)
Min Temperature 17 °F -2 °F -24 °F (1943)
Degree Days  
Heating Degree Days 40    
Moisture  
Dew Point -5 °F    
Average Humidity 25    
Maximum Humidity 53    
Minimum Humidity 13    
Precipitation  
Precipitation 0.00 in - - ()
Sea Level Pressure  
Sea Level Pressure 30.58 in    
Wind  
Wind Speed 18 mph (WSW)    
Max Wind Speed 24 mph    
Max Gust Speed 30 mph    
Visibility 10 miles    
Events      
Averages and records for this station are not official NWS values.
T = Trace of Precipitation, MM = Missing Value Source: NWS Daily Summary

Daily Weather History Graph

Daily Weather History Graph

Search for Another Location

Airport or City:

Trip Planner

Search our weather history database for the weather conditions in past years. The results will help you decide how hot, cold, wet, or windy it might be!

Date:

Astronomy

Dec. 17, 2011 Rise Set
Actual Time 7:15 AM MST 4:46 PM MST
Civil Twilight 6:45 AM MST 5:15 PM MST
Nautical Twilight 6:12 AM MST 5:48 PM MST
Astronomical Twilight 5:40 AM MST 6:21 PM MST
Moon No Moon Rise 11:37 AM MST (12/17)
Length of Visible Light 10h 29m
Length of Day
9h 30m
Waning Gibbous, 53% of the Moon is Illuminated
Dec 17
Waning Gibbous
Dec 17
Last Quarter
Dec 24
New
Dec 31
First Quarter
Jan 9
Full

Hourly Weather History & Observations

Time (MST) Temp. Windchill Dew Point Humidity Pressure Visibility Wind Dir Wind Speed Gust Speed Precip Events Conditions
12:04 AM 17.6 °F 0.9 °F 3.2 °F 53% 30.53 in 10.0 mi WSW 20.7 mph - N/A   Clear
12:24 AM 19.4 °F 2.1 °F 3.2 °F 49% 30.54 in 10.0 mi WSW 24.2 mph - N/A   Clear
12:44 AM 19.4 °F 2.5 °F 1.4 °F 46% 30.54 in 10.0 mi WSW 23.0 mph - N/A   Clear
1:04 AM 21.2 °F 4.5 °F -0.4 °F 39% 30.54 in 10.0 mi WSW 24.2 mph 29.9 mph N/A   Clear
1:24 AM 21.2 °F 4.5 °F -0.4 °F 39% 30.54 in 10.0 mi West 24.2 mph 29.9 mph N/A   Clear
1:44 AM 21.2 °F 5.6 °F -4.0 °F 33% 30.55 in 10.0 mi West 20.7 mph - N/A   Clear
2:04 AM 23.0 °F 9.2 °F -5.8 °F 28% 30.56 in 10.0 mi West 17.3 mph - N/A   Clear
2:24 AM 24.8 °F 12.9 °F -13.0 °F 19% 30.56 in 10.0 mi West 13.8 mph - N/A   Clear
2:44 AM 26.6 °F 15.7 °F -16.6 °F 14% 30.56 in 10.0 mi WNW 12.7 mph - N/A   Clear
3:04 AM 26.6 °F 13.8 °F -18.4 °F 13% 30.56 in 10.0 mi West 17.3 mph - N/A   Clear
3:24 AM 26.6 °F 14.7 °F -16.6 °F 14% 30.56 in 10.0 mi West 15.0 mph - N/A   Clear
3:44 AM 26.6 °F 15.7 °F -11.2 °F 19% 30.56 in 10.0 mi West 12.7 mph - N/A   Clear
4:04 AM 28.4 °F 19.7 °F -7.6 °F 21% 30.56 in 10.0 mi West 9.2 mph - N/A   Clear
4:24 AM 26.6 °F 18.2 °F -7.6 °F 22% 30.56 in 10.0 mi West 8.1 mph - N/A   Clear
4:44 AM 24.8 °F 16.1 °F -7.6 °F 24% 30.56 in 10.0 mi SW 8.1 mph - N/A   Clear
5:04 AM 26.6 °F 16.8 °F -9.4 °F 21% 30.56 in 10.0 mi West 10.4 mph - N/A   Clear
5:24 AM 26.6 °F 19.1 °F -13.0 °F 17% 30.57 in 10.0 mi WSW 6.9 mph - N/A   Clear
5:44 AM 26.6 °F 19.1 °F -13.0 °F 17% 30.58 in 10.0 mi West 6.9 mph - N/A   Clear
6:04 AM 26.6 °F 18.2 °F -9.4 °F 21% 30.58 in 10.0 mi WSW 8.1 mph - N/A   Clear
6:24 AM 26.6 °F 16.8 °F -7.6 °F 22% 30.58 in 10.0 mi WSW 10.4 mph - N/A   Clear
6:44 AM 26.6 °F 17.5 °F -5.8 °F 24% 30.58 in 10.0 mi WSW 9.2 mph - N/A   Clear
7:04 AM 28.4 °F 18.0 °F -9.4 °F 19% 30.58 in 10.0 mi WSW 12.7 mph - N/A   Clear
7:24 AM 23.0 °F 10.1 °F -11.2 °F 22% 30.58 in 10.0 mi WSW 15.0 mph 20.7 mph N/A   Clear
7:44 AM 26.6 °F 13.8 °F -13.0 °F 17% 30.59 in 10.0 mi WSW 17.3 mph - N/A   Clear
8:04 AM 26.6 °F 13.1 °F -13.0 °F 17% 30.60 in 10.0 mi WSW 19.6 mph - N/A   Clear
8:24 AM 26.6 °F 12.4 °F -14.8 °F 16% 30.60 in 10.0 mi West 21.9 mph - N/A   Clear
8:44 AM 26.6 °F 12.4 °F -13.0 °F 17% 30.61 in 10.0 mi WSW 21.9 mph - N/A   Clear
9:04 AM 26.6 °F 12.0 °F -13.0 °F 17% 30.61 in 10.0 mi WSW 23.0 mph - N/A   Clear
9:24 AM 24.8 °F 9.3 °F -9.4 °F 22% 30.61 in 10.0 mi WSW 24.2 mph - N/A   Clear
9:44 AM 26.6 °F 12.0 °F -7.6 °F 22% 30.62 in 10.0 mi WSW 23.0 mph - N/A   Clear
10:24 AM 28.4 °F 15.1 °F -5.8 °F 23% 30.63 in 10.0 mi West 20.7 mph - N/A   Clear
10:44 AM 30.2 °F 17.8 °F -5.8 °F 21% 30.63 in 10.0 mi West 19.6 mph 24.2 mph N/A   Clear
11:04 AM 32.0 °F 20.8 °F -4.0 °F 21% 30.62 in 10.0 mi WSW 17.3 mph - N/A   Clear
11:24 AM 32.0 °F 20.8 °F -2.2 °F 23% 30.62 in 10.0 mi WSW 17.3 mph 21.9 mph N/A   Clear
11:44 AM 32.0 °F 21.6 °F -0.4 °F 25% 30.61 in 10.0 mi WSW 15.0 mph - N/A   Clear
12:04 PM 32.0 °F 21.6 °F 1.4 °F 27% 30.60 in 10.0 mi West 15.0 mph - N/A   Clear
12:24 PM 33.8 °F 23.9 °F 1.4 °F 25% 30.59 in 10.0 mi West 15.0 mph - N/A   Clear
12:44 PM 33.8 °F 23.9 °F 3.2 °F 28% 30.58 in 10.0 mi WSW 15.0 mph 18.4 mph N/A   Clear
1:04 PM 33.8 °F 25.3 °F 1.4 °F 25% 30.58 in 10.0 mi WSW 11.5 mph 18.4 mph N/A   Clear
1:24 PM 33.8 °F 23.9 °F 1.4 °F 25% 30.58 in 10.0 mi WSW 15.0 mph - N/A   Clear
1:44 PM 33.8 °F 23.2 °F 3.2 °F 28% 30.57 in 10.0 mi WSW 17.3 mph - N/A   Clear
2:04 PM 33.8 °F 23.2 °F 3.2 °F 28% 30.56 in 10.0 mi WSW 17.3 mph - N/A   Clear
2:24 PM 33.8 °F 22.5 °F 1.4 °F 25% 30.56 in 10.0 mi WSW 19.6 mph - N/A   Clear
2:44 PM 33.8 °F 22.8 °F 3.2 °F 28% 30.56 in 10.0 mi WSW 18.4 mph - N/A   Clear
3:04 PM 32.0 °F 19.8 °F 3.2 °F 30% 30.56 in 10.0 mi WSW 20.7 mph - N/A   Clear
3:24 PM 32.0 °F 20.5 °F 3.2 °F 30% 30.56 in 10.0 mi WSW 18.4 mph - N/A   Clear
4:03 PM 32.0 °F 19.8 °F 1.4 °F 27% 30.56 in 10.0 mi WSW 20.7 mph - N/A   Clear
4:23 PM 32.0 °F 20.5 °F -0.4 °F 25% 30.56 in 10.0 mi WSW 18.4 mph - N/A   Clear
4:43 PM 30.2 °F 16.8 °F -0.4 °F 27% 30.56 in 10.0 mi West 23.0 mph - N/A   Clear
5:03 PM 30.2 °F 17.1 °F -4.0 °F 23% 30.56 in 10.0 mi West 21.9 mph - N/A   Clear
5:23 PM 28.4 °F 14.1 °F -4.0 °F 25% 30.56 in 10.0 mi West 24.2 mph - N/A   Clear
5:43 PM 28.4 °F 14.4 °F -4.0 °F 25% 30.56 in 10.0 mi West 23.0 mph - N/A   Clear
6:03 PM 28.4 °F 14.1 °F -5.8 °F 23% 30.56 in 10.0 mi West 24.2 mph - N/A   Clear
6:23 PM 28.4 °F 14.1 °F -5.8 °F 23% 30.56 in 10.0 mi West 24.2 mph - N/A   Clear
6:43 PM 28.4 °F 14.1 °F -5.8 °F 23% 30.56 in 10.0 mi West 24.2 mph - N/A   Clear
7:03 PM 28.4 °F 14.4 °F -7.6 °F 21% 30.56 in 10.0 mi West 23.0 mph - N/A   Clear
7:23 PM 28.4 °F 14.7 °F -5.8 °F 23% 30.56 in 10.0 mi WSW 21.9 mph - N/A   Clear
7:43 PM 26.6 °F 12.4 °F -5.8 °F 24% 30.56 in 10.0 mi WSW 21.9 mph - N/A   Clear
8:03 PM 26.6 °F 12.4 °F -7.6 °F 22% 30.55 in 10.0 mi WSW 21.9 mph - N/A   Clear
8:23 PM 28.4 °F 14.7 °F -9.4 °F 19% 30.55 in 10.0 mi WSW 21.9 mph - N/A   Clear
8:43 PM 28.4 °F 13.8 °F -9.4 °F 19% 30.54 in 10.0 mi West 25.3 mph - N/A   Clear
9:03 PM 28.4 °F 14.1 °F -9.4 °F 19% 30.54 in 10.0 mi WSW 24.2 mph - N/A   Clear
9:43 PM 26.6 °F 12.0 °F -7.6 °F 22% 30.53 in 10.0 mi WSW 23.0 mph - N/A   Clear
10:03 PM 26.6 °F 12.0 °F -9.4 °F 21% 30.53 in 10.0 mi West 23.0 mph - N/A   Clear
10:23 PM 28.4 °F 14.4 °F -7.6 °F 21% 30.53 in 10.0 mi West 23.0 mph - N/A   Clear
10:43 PM 28.4 °F 14.7 °F -5.8 °F 23% 30.53 in 10.0 mi WSW 21.9 mph - N/A   Clear
11:03 PM 26.6 °F 11.4 °F -9.4 °F 21% 30.53 in 10.0 mi WSW 25.3 mph - N/A   Clear
11:23 PM 26.6 °F 10.6 °F -9.4 °F 21% 30.52 in 10.0 mi WSW 28.8 mph - N/A   Clear
11:43 PM 26.6 °F 10.6 °F -9.4 °F 21% 30.51 in 10.0 mi WSW 28.8 mph - N/A   Clear